STARLINK-32041, 60202

Orbit data source: Space-Track

STARLINK-32041, 60202 is a payload satellite in LEO that was launched on Wed, 03 Jul 2024 UTC via an FALCON 9 launch vehicle from the Air Force Eastern Test Range (AFETR). Payload-class satellites include a variety of spacecraft equipped with specific instruments for various scientific and technological missions. These include communications satellites like Starlink; space stations such as the ISS; scientific satellites like the Hubble; Earth observation satellites from companies like Planet Labs, Umbra, and HawkEye 360; GPS; miniature CubeSats for education and research; and military/defense satellites.

Loading next visibility...
Identifier
60202, 2024-124V
Orbit
LEO
Last TLE update
10 hours ago
Origin
Manufacturer
SpaceX/Seattle
Mission
Operational Commercial Communications
Bus & Motor
STARLINK V2M, Unknown motor
Mass
730 kg wet, ~700 kg dry
Launch date (UTC)
2024-07-03 (11 months ago)
Launch vehicle
FALCON 9
Launch site
Air Force Eastern Test Range (AFETR)
Object type
Payload
Rocket body
Debris
Shape & HBR
Box + 2 Pan, 29 m
Radar Cross Section
36.964 m², Large (>1 m²)

Expand to show TLE details & history

TLE from 10 hours ago
0 STARLINK-32041
1 60202U 24124V   25141.59010037  .00003962  00000-0  14571-3 0  9992
2 60202  53.1603 239.2921 0001318  76.8725 283.2422 15.30223465 50779
Epoch: 2025-05-21T14:09Z
TLE epoch observation values (Epoch: 2025-05-21T14:09:44.671Z)
Latitude
-0.00011°
Longitude
147.38406°
Altitude
475.838 km
Speed
7.629 km/s
True Right ascension
15h 57m 10s
True Declination
0° 00' 00"
Sunlit
Object was in full shadow at epoch
Visualization orbit readout
Latitude
20.42869°
Longitude
-50.67764°
Altitude
475.421 km
Speed
7.631 km/s
Apparent Right ascension
00h 26m 17s
Apparent Declination
-11° 12' 02"
Sunlit
Object is in daylight
Visualization observer readout
Local Sidereal Time
09:13:22
Azimuth
290.278° WNW
Elevation
-38.743°
Doppler factor
1
Orbital elements
Apogee altitude
476.305 km
Perigee altitude
474.498 km
Semi-major axis
6,853.538 km
Eccentricity
0.00013
Inclination
53.1603°
RAAN
239.2921°
Arg. of periapsis
76.8725°
True anomaly
Unknown
Mean anomaly
283.2422°
Eccentric anomaly
Unknown
Mean motion
3.82535 °/min
Orbital period
94.11 mins
BSTAR
0.00014571
Loading maneuver chart data...
Loading SW <> Apogee altitude chart data...
Loading historical data...
Loading historical data...
Loading historical data...
Loading historical data...
Loading historical data...
Loading historical data...
Loading historical data...

STARLINK-32041 Visibility forecast

Observer location: undefined°, undefined°

Span
Click to sort rows by Start time (UTC) header in descending order
Start Az.
Max El. time (UTC)
Max El. Az.
Max El.
End time (UTC)
End Az.
6 mins2025-05-22 09:09:18.198Z225.157° WSW2025-05-22 09:12:18.198Z80.83° E44.02°2025-05-22 09:15:18.198Z51.895° ENE
5 mins2025-05-22 15:45:18.198Z321.466° NNW2025-05-22 15:47:18.198Z61.863° ENE42.392°2025-05-22 15:50:18.198Z121.002° SE
|